SL-4 R/B, 64752

Orbit data source: Space-Track

SL-4 R/B, 64752 is space debris in LEO originally from a Commonwealth of Independent States-origin launch on Thu, 03 Jul 2025 UTC launched from the Tyuratam Missile And Space Complex (TTMTR). Debris objects in space refer to the collection of defunct objects orbiting the Earth. Examples of debris include non-operational satellites, rocket bodies, and fragments generated from explosions, collisions, or faulty payload assembly.

Not visible in the next 10 days
Identifier
64752, 2025-145B
Orbit
LEO
Last TLE update
11 hours ago
Origin
Flag of CISCIS
Manufacturer
Unknown
Mission
Spacecraft
Bus & Motor
Unknown
Mass
Unknown
Launch date (UTC)
2025-07-03 (3 days ago)
Launch vehicle
Unknown
Launch site
Tyuratam Missile And Space Complex (TTMTR)
Object type
Payload
Rocket body
Debris
Shape & HBR
Unknown
Radar Cross Section
Large (>1 m²)

Expand to show TLE details & history

TLE from 11 hours ago
0 SL-4 R/B
1 64752U 25145B   25186.48862154  .10330136  12471-4  57919-3 0  9991
2 64752  51.6522 215.8577 0007651  81.6957  88.7713 16.41931275   279
Epoch: 2025-07-05T11:43Z
TLE epoch observation values (Epoch: 2025-07-05T11:43:36.901Z)
Latitude
7.36199°
Longitude
-69.60471°
Altitude
160.68 km
Speed
7.812 km/s
True Right ascension
02h 00m 05s
True Declination
7° 18' 52"
Sunlit
Object was in daylight at epoch
Visualization orbit readout
Latitude
-12.44831°
Longitude
103.63814°
Altitude
139.115 km
Speed
7.823 km/s
Apparent Right ascension
16h 53m 20s
Apparent Declination
-50° 30' 57"
Sunlit
Object is in full shadow
Visualization observer readout
Local Sidereal Time
10:33:44
Azimuth
131.327° SE
Elevation
-32.472°
Doppler factor
1
Orbital elements
Apogee altitude
166.199 km
Perigee altitude
156.192 km
Semi-major axis
6,539.332 km
Eccentricity
0.00077
Inclination
51.6522°
RAAN
215.8577°
Arg. of periapsis
81.6957°
True anomaly
Unknown
Mean anomaly
88.7713°
Eccentric anomaly
Unknown
Mean motion
4.10434 °/min
Orbital period
87.71 mins
BSTAR
0.00057919
Loading maneuver chart data...
Loading SW <> Apogee altitude chart data...
Loading historical data...
Loading historical data...
Loading historical data...
Loading historical data...
Loading historical data...
Loading historical data...
Loading historical data...
Other satellites on launch #145 in the year 2025 (2025-07-03 UTC)

SL-4 R/B Visibility

Observer location: undefined°, undefined°

SL-4 R/B is likely not visible in the next few days
Span
Click to sort rows by Start time (UTC) header in descending order
Start Az.
Max El. time (UTC)
Max El. Az.
Max El.
End time (UTC)
End Az.
|